Overview Statistics Trail Chart Weather Telemetry Raw packets
 

This is the latest recevied weather packets stored in our database for station/object K9RCP-20. If no packets are shown the sender has not sent any weather packets the latest 10 day(s).

<< 1 2 3 4 5 6 >>
Time Temp. Humidity Pressure Rain* Wind** Luminosity Snow
1788590396 12.78° C 93% 1012.9 hPa 0 mm - 0 W/m² -
1788589788 12.78° C 93% 1012.9 hPa 0 mm - 0 W/m² -
1788589487 12.78° C 93% 1012.9 hPa 0 mm - 0 W/m² -
1788588882 12.78° C 93% 1012.8 hPa 0 mm - 0 W/m² -
1788588576 12.78° C 93% 1013 hPa 0 mm - 0 W/m² -
1788588273 12.78° C 92% 1012.8 hPa 0 mm - 0 W/m² -
1788587971 12.78° C 92% 1012.9 hPa 0 mm - 0 W/m² -
1788587666 12.78° C 92% 1013 hPa 0 mm - 0 W/m² -
1788587366 12.78° C 92% 1012.8 hPa 0 mm - 0 W/m² -
1788587062 12.78° C 92% 1012.8 hPa 0 mm - 0 W/m² -
1788583725 12.78° C 94% 1012.8 hPa 0 mm - 0 W/m² -
1788583421 12.78° C 94% 1012.7 hPa 0 mm - 0 W/m² -
1788582814 12.78° C 94% 1012.7 hPa 0 mm - 0 W/m² -
1788582509 12.78° C 94% 1012.7 hPa 0 mm - 0 W/m² -
1788582209 12.78° C 93% 1012.6 hPa 0 mm - 0 W/m² -
1788579780 13.89° C 89% 1012.3 hPa 0 mm - 0 W/m² -
1788579478 13.89° C 89% 1012.3 hPa 0 mm - 0 W/m² -
1788579174 13.89° C 89% 1012.1 hPa 0 mm - 0 W/m² -
1788578569 13.89° C 88% 1012.3 hPa 0 mm - 0 W/m² -
1788578264 13.89° C 88% 1012.1 hPa 0 mm - 0 W/m² -
1788576746 15° C 86% 1011.7 hPa 0 mm - 3 W/m² -
1788576442 15° C 86% 1011.8 hPa 0 mm - 3 W/m² -
1788576138 15° C 86% 1011.9 hPa 0 mm - 7 W/m² -
1788575832 15° C 86% 1011.7 hPa 0 mm - 7 W/m² -
1788575532 15.56° C 87% 1011.7 hPa 0 mm - 16 W/m² -

* Rain latest hour (hover to see other rain measurements)
** Current wind speed in m/s (hover to see current wind gust speed)